• în Republica Moldova
  • Lista ţărilor
  • Pe 7 zile
  • Temperatura apei
  • Hartă satelitară
  • Meteo pe hartă
  • Widget-uri
  • user-avatar
    Intrare

    Meteo pe oră la Kerns

    Astăzi, 22 Ianuarie, Duminică

    Timp Temperatura Precipitaţii Vânt Presiune Umiditate
    00:00 +26°C° 0,2 mm 1 m/s 756 mmHg 97%
    01:00 +26°C° 0,2 mm 1 m/s 755 mmHg 97%
    02:00 +26°C° 0 mm 1 m/s 755 mmHg 97%
    03:00 +25°C° 0 mm 1 m/s 755 mmHg 97%
    04:00 +25°C° 0 mm 1 m/s 755 mmHg 95%
    05:00 +26°C° 0 mm 1 m/s 755 mmHg 92%
    06:00 +27°C° 0 mm 1 m/s 755 mmHg 90%
    07:00 +28°C° 0 mm 1 m/s 756 mmHg 87%
    08:00 +30°C° 0 mm 2 m/s 756 mmHg 78%
    09:00 +32°C° 0 mm 2 m/s 756 mmHg 69%
    10:00 +37°C° 0 mm 2 m/s 756 mmHg 58%
    11:00 +37°C° 0,1 mm 2 m/s 756 mmHg 58%
    12:00 +37°C° 0,1 mm 3 m/s 755 mmHg 58%
    13:00 +37°C° 0,1 mm 4 m/s 755 mmHg 58%
    14:00 +36°C° 0,2 mm 4 m/s 755 mmHg 61%
    15:00 +36°C° 0,2 mm 4 m/s 755 mmHg 63%
    16:00 +35°C° 0,2 mm 4 m/s 755 mmHg 66%
    17:00 +34°C° 0 mm 3 m/s 755 mmHg 74%
    18:00 +31°C° 0 mm 3 m/s 755 mmHg 82%
    19:00 +29°C° 0 mm 2 m/s 756 mmHg 90%
    20:00 +29°C° 0 mm 2 m/s 756 mmHg 92%
    21:00 +28°C° 0 mm 2 m/s 756 mmHg 94%
    22:00 +27°C° 0 mm 2 m/s 757 mmHg 96%
    23:00 +27°C° 0 mm 2 m/s 757 mmHg 96%

    Mâine, 23 Ianuarie, Luni

    Timp Temperatura Precipitaţii Vânt Presiune Umiditate
    00:00 +27°C° 0 mm 2 m/s 756 mmHg 96%
    01:00 +27°C° 0 mm 2 m/s 756 mmHg 96%
    02:00 +27°C° 0 mm 2 m/s 756 mmHg 96%
    03:00 +26°C° 0 mm 2 m/s 756 mmHg 97%
    04:00 +26°C° 0 mm 2 m/s 756 mmHg 97%
    05:00 +27°C° 0 mm 2 m/s 756 mmHg 96%
    06:00 +27°C° 0 mm 2 m/s 756 mmHg 94%
    07:00 +28°C° 0 mm 2 m/s 757 mmHg 92%
    08:00 +29°C° 0 mm 2 m/s 757 mmHg 85%
    09:00 +31°C° 0 mm 2 m/s 757 mmHg 77%
    10:00 +33°C° 0 mm 3 m/s 757 mmHg 70%
    11:00 +34°C° 0,2 mm 3 m/s 757 mmHg 66%
    12:00 +35°C° 0,2 mm 3 m/s 756 mmHg 62%
    13:00 +36°C° 0,2 mm 3 m/s 756 mmHg 58%
    14:00 +36°C° 0 mm 4 m/s 756 mmHg 59%
    15:00 +35°C° 0 mm 4 m/s 755 mmHg 60%
    16:00 +35°C° 0 mm 4 m/s 755 mmHg 60%
    17:00 +33°C° 0 mm 4 m/s 755 mmHg 69%
    18:00 +30°C° 0 mm 3 m/s 756 mmHg 78%
    19:00 +29°C° 0 mm 3 m/s 756 mmHg 87%
    20:00 +28°C° 0 mm 3 m/s 757 mmHg 91%
    21:00 +27°C° 0 mm 2 m/s 757 mmHg 94%
    22:00 +26°C° 0 mm 2 m/s 758 mmHg 98%
    23:00 +26°C° 0,2 mm 2 m/s 757 mmHg 98%

    Poimâine, 24 Ianuarie, Marţi

    Timp Temperatura Precipitaţii Vânt Presiune Umiditate
    00:00 +26°C° 0,2 mm 2 m/s 757 mmHg 98%
    01:00 +26°C° 0,2 mm 2 m/s 757 mmHg 98%
    02:00 +26°C° 0,2 mm 2 m/s 757 mmHg 98%
    03:00 +26°C° 0,2 mm 2 m/s 756 mmHg 98%
    04:00 +27°C° 0,2 mm 2 m/s 756 mmHg 98%
    05:00 +27°C° 0,3 mm 2 m/s 757 mmHg 96%
    06:00 +27°C° 0,3 mm 2 m/s 757 mmHg 95%
    07:00 +27°C° 0,3 mm 2 m/s 757 mmHg 94%
    08:00 +29°C° 0,4 mm 2 m/s 758 mmHg 85%
    09:00 +31°C° 0,4 mm 3 m/s 758 mmHg 76%
    10:00 +34°C° 0,4 mm 3 m/s 758 mmHg 67%
    11:00 +34°C° 0,4 mm 3 m/s 757 mmHg 68%
    12:00 +34°C° 0,4 mm 3 m/s 757 mmHg 68%
    13:00 +35°C° 0,4 mm 3 m/s 757 mmHg 68%
    14:00 +35°C° 0,1 mm 3 m/s 756 mmHg 66%
    15:00 +35°C° 0,1 mm 3 m/s 756 mmHg 63%
    16:00 +35°C° 0,1 mm 3 m/s 755 mmHg 60%
    17:00 +33°C° 0 mm 3 m/s 756 mmHg 69%
    18:00 +31°C° 0 mm 3 m/s 756 mmHg 78%
    19:00 +29°C° 0 mm 3 m/s 757 mmHg 86%
    20:00 +28°C° 0 mm 3 m/s 757 mmHg 90%
    21:00 +27°C° 0 mm 3 m/s 758 mmHg 94%
    22:00 +26°C° 0 mm 2 m/s 758 mmHg 97%
    23:00 +26°C° 0,2 mm 2 m/s 758 mmHg 97%

    25 Ianuarie, Miercuri

    Timp Temperatura Precipitaţii Vânt Presiune Umiditate
    00:00 +26°C° 0,2 mm 2 m/s 758 mmHg 98%
    01:00 +26°C° 0,2 mm 2 m/s 757 mmHg 98%
    02:00 +26°C° 0,3 mm 2 m/s 757 mmHg 97%
    03:00 +26°C° 0,3 mm 3 m/s 757 mmHg 97%
    04:00 +26°C° 0,3 mm 3 m/s 756 mmHg 96%
    05:00 +26°C° 0,4 mm 3 m/s 757 mmHg 95%
    06:00 +27°C° 0,4 mm 3 m/s 757 mmHg 93%
    07:00 +27°C° 0,4 mm 3 m/s 758 mmHg 92%
    08:00 +29°C° 0,3 mm 4 m/s 758 mmHg 83%
    09:00 +32°C° 0,3 mm 4 m/s 758 mmHg 74%
    10:00 +34°C° 0,3 mm 4 m/s 758 mmHg 65%
    11:00 +34°C° 0,1 mm 4 m/s 758 mmHg 62%
    12:00 +35°C° 0,1 mm 4 m/s 757 mmHg 59%
    13:00 +36°C° 0,1 mm 4 m/s 757 mmHg 55%
    14:00 +36°C° 0,1 mm 4 m/s 756 mmHg 58%
    15:00 +35°C° 0,1 mm 4 m/s 756 mmHg 61%
    16:00 +35°C° 0,1 mm 4 m/s 755 mmHg 64%
    17:00 +33°C° 0,1 mm 4 m/s 756 mmHg 71%
    18:00 +30°C° 0,1 mm 3 m/s 756 mmHg 79%
    19:00 +29°C° 0,1 mm 3 m/s 757 mmHg 87%
    20:00 +28°C° 0,4 mm 3 m/s 757 mmHg 90%
    21:00 +27°C° 0,4 mm 3 m/s 757 mmHg 94%
    22:00 +27°C° 0,4 mm 2 m/s 758 mmHg 98%
    23:00 +27°C° 0,3 mm 2 m/s 757 mmHg 98%

    26 Ianuarie, Joi

    Timp Temperatura Precipitaţii Vânt Presiune Umiditate
    00:00 +27°C° 0,3 mm 2 m/s 757 mmHg 97%
    01:00 +27°C° 0,3 mm 2 m/s 757 mmHg 97%
    02:00 +26°C° 0 mm 2 m/s 756 mmHg 97%
    03:00 +26°C° 0 mm 3 m/s 756 mmHg 97%
    04:00 +26°C° 0 mm 3 m/s 756 mmHg 97%
    05:00 +26°C° 0,2 mm 3 m/s 756 mmHg 95%
    06:00 +26°C° 0,2 mm 3 m/s 757 mmHg 94%
    07:00 +27°C° 0,2 mm 3 m/s 757 mmHg 92%
    08:00 +29°C° 0,2 mm 4 m/s 757 mmHg 83%
    09:00 +32°C° 0,2 mm 4 m/s 757 mmHg 75%
    10:00 +34°C° 0,2 mm 4 m/s 757 mmHg 66%
    11:00 +34°C° 0,2 mm 4 m/s 757 mmHg 62%
    12:00 +35°C° 0,2 mm 4 m/s 756 mmHg 58%
    13:00 +36°C° 0,2 mm 5 m/s 756 mmHg 54%
    14:00 +36°C° 0,1 mm 5 m/s 755 mmHg 55%
    15:00 +36°C° 0,1 mm 5 m/s 755 mmHg 56%
    16:00 +35°C° 0,1 mm 5 m/s 755 mmHg 56%
    17:00 +34°C° 0 mm 4 m/s 755 mmHg 66%
    18:00 +32°C° 0 mm 4 m/s 756 mmHg 75%
    19:00 +29°C° 0 mm 4 m/s 756 mmHg 84%
    20:00 +28°C° 0,5 mm 4 m/s 756 mmHg 88%
    21:00 +28°C° 0,5 mm 3 m/s 757 mmHg 93%
    22:00 +27°C° 0,5 mm 3 m/s 757 mmHg 97%
    23:00 +27°C° 0,6 mm 3 m/s 757 mmHg 97%

    27 Ianuarie, Vineri

    Timp Temperatura Precipitaţii Vânt Presiune Umiditate
    00:00 +27°C° 0,6 mm 3 m/s 757 mmHg 97%
    01:00 +27°C° 0,6 mm 3 m/s 756 mmHg 97%
    02:00 +27°C° 0,4 mm 3 m/s 756 mmHg 97%
    03:00 +26°C° 0,4 mm 3 m/s 756 mmHg 98%
    04:00 +26°C° 0,4 mm 3 m/s 755 mmHg 98%
    05:00 +26°C° 0 mm 3 m/s 756 mmHg 97%
    06:00 +27°C° 0 mm 3 m/s 756 mmHg 95%
    07:00 +27°C° 0 mm 3 m/s 757 mmHg 94%
    08:00 +29°C° 0,1 mm 3 m/s 757 mmHg 84%
    09:00 +31°C° 0,1 mm 3 m/s 757 mmHg 75%
    10:00 +34°C° 0,1 mm 3 m/s 757 mmHg 65%
    11:00 +34°C° 0,2 mm 4 m/s 757 mmHg 64%
    12:00 +35°C° 0,2 mm 4 m/s 756 mmHg 62%
    13:00 +36°C° 0,2 mm 4 m/s 756 mmHg 60%
    14:00 +35°C° 0,2 mm 4 m/s 755 mmHg 63%
    15:00 +35°C° 0,2 mm 4 m/s 755 mmHg 67%
    16:00 +34°C° 0,2 mm 4 m/s 755 mmHg 70%
    17:00 +33°C° 0,1 mm 4 m/s 755 mmHg 76%
    18:00 +30°C° 0,1 mm 4 m/s 756 mmHg 82%
    19:00 +29°C° 0,1 mm 3 m/s 756 mmHg 88%
    20:00 +28°C° 0,5 mm 3 m/s 757 mmHg 91%
    21:00 +28°C° 0,5 mm 3 m/s 757 mmHg 94%
    22:00 +27°C° 0,5 mm 3 m/s 758 mmHg 96%
    23:00 +27°C° 0,3 mm 3 m/s 757 mmHg 96%
    Arată mai mult